Content
SEND FEEDBACK

Daily
Averages
Monthly
Summary
United States of America

SOUTH LAKE TAHOE - AIRPORT, CALIFORNIA


Home > North America > United States > California
Elevation: 6250 feet     Latitude: 38 54N     Longitude: 120 00W

WEATHER
 
SELECT A DAY
Number of Records: 176,518;   Date Range: 1/1/95 - 9/30/14
 
SHARE

PRINT THIS DATA

[ ← Previous Day ]
WEATHER ALMANAC - FEBRUARY 16, 2014
[ Next Day → ]
[ °C ]   °F
Weather ElementAverageHighLow
Temperature37.5 °F51.1 °F (2:53 pm)26.1 °F (11:53 pm)
Dewpoint28.8 °F34 °F (8:53 am)19.9 °F (11:53 pm)
Humidity72.6 %89 % (5:08 am)39 % (11:53 am)
Barometer30.04 in30.20 in (8:53 pm)29.88 in (2:53 am)
Wind Speed11 mph19.6 mph (2:53 am)
Wind Gust39.1 mph (2:53 am)
Weather ElementAverage
Visibility6.8 mi
Wind DirectionS (175.6 °)

Weather ElementTotal
Precipitation0.35 in
Heating Degree Days26.4 (Base 65)
Averaged from 41 records on February 16, 2014
WEATHER CONDITIONS BREAKOUT
WIND DIRECTION BREAKOUT
WEATHER BY HOUR - FEBRUARY 16, 2014
[ °C ]   °F
Local TimeTemperatureDewpointHumidityBarometerVisibilityWind DirectionWind SpeedGust SpeedPrecipitationEventsConditions
12:16 AM35.1 °F27.0 °F72 %30.03 in2.0 miSouth (190°)16.1 mph21.9 mph0.01 inSnowLight Snow
12:24 AM34.0 °F27.0 °F75 %30.03 in1.5 miSouth (190°)17.3 mph33.4 mph0.01 inSnowLight Snow
12:31 AM34.0 °F28.0 °F79 %30.02 in0.8 miSouth (190°)17.3 mph0.01 inSnowLight Snow
12:37 AM33.1 °F28.9 °F85 %30.00 in0.8 miSSW (200°)13.8 mph24.2 mph0.02 inSnowLight Snow
12:45 AM33.1 °F28.9 °F85 %30.01 in0.8 miSW (220°)11.5 mph20.7 mph0.02 inSnowLight Snow
12:48 AM33.8 °F28.4 °F81 %30.02 in1.0 miSW (220°)11.5 mph21.9 mph0.02 inSnowLight Snow
12:53 AM34.0 °F28.9 °F82 %29.94 in1.0 miSSW (200°)11.5 mph21.9 mph0.02 inSnowLight Snow
1:22 AM34.0 °F30.0 °F85 %29.99 in3.0 miSSW (210°)9.2 mph0.02 inSnowLight Snow
1:26 AM35.1 °F30.0 °F82 %29.98 in6.0 miSSW (200°)9.2 mph0.02 inHaze
1:44 AM36.0 °F28.9 °F76 %29.98 in2.5 miSouth (190°)17.3 mph20.7 mph0.02 inSnowLight Snow
1:53 AM36.0 °F30.0 °F79 %29.90 in2.5 miSSW (200°)15.0 mph23.0 mph0.02 inSnowLight Snow
1:59 AM36.0 °F30.0 °F79 %29.98 in5.0 miSSW (200°)11.5 mph21.9 mph0.01 inSnowLight Snow
2:24 AM36.0 °F30.9 °F82 %29.98 in4.0 miSouth (190°)11.5 mph24.2 mph0.02 inSnowLight Snow
2:31 AM37.0 °F30.9 °F79 %29.97 in7.0 miSouth (180°)16.1 mph25.3 mph0.02 inRainLight Rain
2:53 AM39.0 °F30.9 °F73 %29.88 in9.0 miSSW (210°)19.6 mph39.1 mph0.03 inRainLight Rain
3:53 AM37.9 °F32.0 °F79 %29.90 in7.0 miSSW (210°)11.5 mph26.5 mph0.02 inRainLight Rain
4:53 AM37.9 °F33.1 °F83 %29.94 in9.0 miSSW (200°)11.5 mph21.9 mph0.01 inSnowLight Snow
5:08 AM36.0 °F33.1 °F89 %30.01 in4.0 miSSW (200°)12.7 mph0.01 inSnowLight Snow
5:18 AM37.0 °F30.9 °F79 %30.02 in8.0 miSSW (210°)11.5 mph21.9 mph0.01 inSnowLight Snow
5:33 AM37.0 °F30.9 °F79 %30.02 in2.5 miSSW (210°)9.2 mph25.3 mph0.01 inSnowLight Snow
5:43 AM37.0 °F32.0 °F82 %30.02 in5.0 miSSW (210°)10.4 mph23.0 mph0.01 inSnowLight Snow
5:53 AM37.0 °F32.0 °F82 %29.99 in8.0 miSSW (200°)12.7 mph21.9 mph0.01 inSnowLight Snow
6:44 AM36.0 °F30.9 °F82 %30.03 in10.0 miSSW (200°)12.7 mph17.3 mph0.00 inScattered Clouds
6:53 AM36.0 °F32.0 °F86 %30.01 in10.0 miSouth (190°)12.7 mph0.00 inPartly Cloudy
7:53 AM37.9 °F32.0 °F79 %30.02 in10.0 miSSW (200°)13.8 mph23.0 mphClear
8:53 AM37.9 °F34.0 °F86 %30.07 in10.0 miSSE (150°)9.2 mphClear
9:53 AM41.0 °F28.0 °F60 %30.10 in10.0 miSSE (150°)12.7 mph16.1 mphClear
10:53 AM45.0 °F24.1 °F44 %30.09 in10.0 miSouth (180°)13.8 mph19.6 mphClear
11:53 AM46.9 °F23.0 °F39 %30.11 in10.0 miSouth (190°)12.7 mphClear
12:53 PM48.0 °F26.1 °F42 %30.12 in10.0 miSouth (190°)12.7 mphClear
1:53 PM48.9 °F28.0 °F44 %30.10 in10.0 miSouth (170°)11.5 mphClear
2:53 PM51.1 °F28.0 °F41 %30.09 in10.0 miSouth (180°)15.0 mphClear
3:53 PM51.1 °F28.0 °F41 %30.09 in10.0 miSSW (200°)10.4 mph23.0 mphClear
4:53 PM48.0 °F32.0 °F54 %30.12 in10.0 miSSW (200°)9.2 mphClear
5:53 PM42.1 °F33.1 °F70 %30.13 in10.0 miVariable3.5 mphClear
6:53 PM37.0 °F26.1 °F65 %30.17 in10.0 miSouth (190°)6.9 mphClear
7:53 PM33.1 °F26.1 °F75 %30.19 in10.0 miCalmClear
8:53 PM30.0 °F21.9 °F72 %30.20 in10.0 miSouth (180°)4.6 mphClear
9:53 PM28.9 °F21.9 °F75 %30.20 in10.0 miCalmClear
10:53 PM28.0 °F21.0 °F75 %30.19 in10.0 miCalmClear
11:53 PM26.1 °F19.9 °F78 %30.19 in10.0 miSSW (200°)3.5 mphClear
Hourly data recorded from KTVL, located miles away from South Lake Tahoe - Airport, California







STORIES FROM OUR PARTNERS